STARLINK-32392

Last updated on Fri Oct 04 2024 00:02:04 GMT+0000 (Coordinated Universal Time)

1 61214U 24171Q 24277.58334491 -.01376928 00000+0 -11443-1 0 9999 2 61214 53.1607 231.8698 0000586 90.5864 190.7095 15.72367578 3281
UTC large
Height (km)
Speed (km/s)
/
Latitude / Longitude
Inclination (degrees)
Orbital Period (minutes)
Azimuth
Elevation
Range (km)
Doppler Factor

Next 0 passes for location: London (51.5072 / 0.1276)

Sorry there are no passes over London.